Location: Silverdale
(47.6506°N, 122.6941°W)
Time: 05:28:08
(UTC+00:00)

Courier 1B Rocket - Pass Details

Date: 09 October 2022
Orbit: 920 x 1202 km, 28.3° (Epoch: 28 November)

Event Time Altitude Azimuth Distance (km) Brightness Sun altitude
Rises 02:56:09 0° 237° (WSW) 3,864 9.0 -14.3°
Reaches altitude 10° 03:00:31 10° 213° (SSW) 2,840 7.8 -15.1°
Maximum altitude 03:03:43 14° 185° (S) 2,524 7.1 -15.6°
Drops below altitude 10° 03:06:50 10° 157° (SSE) 2,745 7.1 -16.1°
Enters shadow 03:07:53 - 149° (SSE) 2,923 7.1 -16.3°
